Tracking 19827 objects as of 22-Aug-2019
HD Live streaming from Space Station
objects crossing your sky now

FLOCK 3K 12

Track FLOCK 3K 12 now!
10-day predictions
FLOCK 3K 12 is classified as:


NORAD ID: 43903
Int'l Code: 2018-111AD
Perigee: 483.2 km
Apogee: 515.7 km
Inclination: 97.3 °
Period: 94.5 minutes
Semi major axis: 6870 km
RCS: Unknown
Launch date: December 27, 2018
Source: United States (US)
Launch site: VOSTOCHNY COSMODROME (VOSTO)
aabbcc
Your satellite tracking list
Your tracking list is empty




NASA's NSSDC Master Catalog

Two Line Element Set (TLE):
1 43903U 18111AD  19233.67408017 +.00000530 +00000-0 +24271-4 0  9990
2 43903 097.2838 137.1514 0023646 124.3714 235.9765 15.24477128036190
Source of the keplerian elements: AFSPC